This demonstration page uses our WeatherBlox Daily Observations layout. Learn more.

Left ArrowRight Arrow

Hourly Observations for October 27, 2016

Temp ( °F °C ) Dew Point ( °F °C ) Humidity (%) Winds ( mph kmh ) Pressure ( in mb ) Visibility ( mi km ) Precip ( " mm )
12:54 am 00:54 Clear 48 8.9 44 6.7 86 86 Calm 30.21 1023 7 11.26538 0 0
1:54 am 01:54 Clear 41 5 39 3.9 93 93 NNE 5 7 30.22 1023 7 11.26538 0 0
2:33 am 02:33 Partly Cloudy with Mist and Fog 43 6.1 41 5 93 93 Calm 30.24 1024 5 8.0467 0 0
2:54 am 02:54 Mostly Clear 43 6.1 41 5 93 93 Calm 30.22 1023 7 11.26538 0 0
3:54 am 03:54 Clear 39 3.9 38 3.3 96 96 Calm 30.22 1023 7 11.26538 0 0
4:54 am 04:54 Mostly Clear with Mist and Fog 41 5 40 4.4 96 96 Calm 30.21 1023 6 9.65604 0 0
5:10 am 05:10 Partly Cloudy with Mist and Fog 41 5 39 4 93 93 Calm 30.27 1025 6 9.65604 0 0
5:20 am 05:20 Mostly Cloudy with Mist and Fog 39 4 39 4 100 100 Calm 30.27 1025 6 9.65604 0 0
5:28 am 05:28 Partly Cloudy 39 4 37 3 93 93 Calm 30.27 1025 8 12.87472 0 0
5:41 am 05:41 Mostly Clear with Mist and Fog 38 3.3 37 2.8 97 97 Calm 30.27 1025 2.5 4.02335 0 0
5:49 am 05:49 Partly Cloudy 39 4 37 3 93 93 Calm 30.27 1025 7 11.26538 0 0
5:54 am 05:54 Mostly Cloudy with Mist and Fog 41 5 39 3.9 93 93 Calm 30.22 1023 4 6.43736 0 0
6:15 am 06:15 Cloudy with Mist and Fog 42 5.6 41 5 96 96 Calm 30.27 1025 4 6.43736 0 0
6:17 am 06:17 Cloudy with Mist and Fog 43 6.1 41 5 93 93 Calm 30.24 1024 1.5 2.41401 0 0
6:23 am 06:23 Mostly Cloudy with Fog 42 5.6 42 5.6 100 100 Calm 30.27 1025 0.5 0.80467 0 0
6:30 am 06:30 Mostly Cloudy with Fog 42 5.6 42 5.6 100 100 Calm 30.27 1025 0.25 0.402335 0 0
6:38 am 06:38 Mostly Cloudy with Fog 42 5.6 42 5.6 100 100 S 3 6 30.27 1025 0.25 0.402335 0 0
6:54 am 06:54 Mostly Cloudy with Fog 41 5 41 5 100 100 Calm 30.24 1024 0.25 0.402335 0 0
6:57 am 06:57 Mostly Cloudy with Fog 42 5.6 41 5 96 96 Calm 30.3 1026 0.25 0.402335 0 0
7:04 am 07:04 Mostly Cloudy with Fog 43 6 41 5 93 93 Calm 30.3 1026 0.25 0.402335 0 0
7:15 am 07:15 Mostly Cloudy with Fog 41 5 41 5 100 100 Calm 30.27 1025 0.5 0.80467 0 0
7:33 am 07:33 Mostly Cloudy with Fog 40 4.4 40 4.4 100 100 Calm 30.27 1025 0.25 0.402335 0 0
7:37 am 07:37 Mostly Cloudy with Fog 40 4.4 40 4.4 100 100 Calm 30.27 1025 0.5 0.80467 0 0
7:50 am 07:50 Mostly Cloudy with Fog 39 4 39 4 100 100 SSE 3 6 30.27 1025 0.25 0.402335 0 0
7:54 am 07:54 Mostly Cloudy with Fog 40 4.4 40 4.4 100 100 SSE 3 6 30.22 1023 0.5 0.80467 0 0
8:04 am 08:04 Mostly Cloudy with Fog 40 4.4 40 4.4 100 100 SSE 3 6 30.27 1025 0.25 0.402335 0 0
8:12 am 08:12 Mostly Cloudy with Mist and Fog 40 4.4 40 4.4 100 100 SSE 5 7 30.27 1025 1.5 2.41401 0 0
8:19 am 08:19 Partly Cloudy with Mist and Fog 40 4.4 40 4.4 100 100 SSE 6 9 30.27 1025 1.5 2.41401 0 0
8:54 am 08:54 Sunny with Mist and Fog 44 6.7 43 6.1 96 96 S 6 9 30.23 1024 3 4.82802 0 0
9:18 am 09:18 Partly Cloudy with Mist and Fog 46 8 45 7 93 93 SSE 9 15 30.24 1024 3 4.82802 0 0
9:28 am 09:28 Mostly Cloudy with Mist and Fog 46 8 45 7 93 93 SSE 7 11 30.27 1025 3 4.82802 0 0
9:41 am 09:41 Mostly Cloudy with Mist and Fog 47 8.3 46 7.8 97 97 S 8 13 30.24 1024 3 4.82802 0 0
9:54 am 09:54 Mostly Cloudy with Mist and Fog 49 9.4 47 8.3 93 93 S 9 15 30.23 1024 4 6.43736 0 0
10:18 am 10:18 Partly Cloudy with Mist and Fog 52 11.1 50 10 93 93 S 10 17 30.24 1024 4 6.43736 0 0
10:54 am 10:54 Sunny 57 13.9 52 11.1 83 83 S 14 22 30.19 1023 8 12.87472 0 0
11:54 am 11:54 Sunny 66 18.9 52 11.1 61 61 S 17 28 30.16 1022 10 16.0934 0 0
12:54 pm 12:54 Sunny 71 21.7 52 11.1 51 51 SSW 15 24 30.14 1021 10 16.0934 0 0
1:54 pm 13:54 Sunny 77 25 49 9.4 37 37 SSW 14 22 30.11 1020 10 16.0934 0 0
2:54 pm 14:54 Sunny 78 25.6 47 8.3 33 33 SSW 16 26 30.08 1019 10 16.0934 0 0
3:54 pm 15:54 Sunny 79 26.1 48 8.9 34 34 SW 15 24 30.06 1018 10 16.0934 0 0
4:54 pm 16:54 Sunny 77 25 48 8.9 36 36 SSW 15 24 30.06 1018 10 16.0934 0 0
5:54 pm 17:54 Sunny 72 22.2 50 10 46 46 S 12 19 30.06 1018 10 16.0934 0 0
6:54 pm 18:54 Clear 65 18.3 51 10.6 61 61 S 9 15 30.07 1018 10 16.0934 0 0
7:54 pm 19:54 Clear 64 17.8 51 10.6 63 63 S 12 19 30.06 1018 10 16.0934 0 0
8:54 pm 20:54 Clear 64 17.8 51 10.6 63 63 S 10 17 30.05 1018 10 16.0934 0 0
9:54 pm 21:54 Clear 61 16.1 50 10 67 67 S 12 19 30.05 1018 10 16.0934 0 0
10:54 pm 22:54 Clear 63 17.2 51 10.6 65 65 S 13 20 30.04 1017 10 16.0934 0 0
11:54 pm 23:54 Clear 62 16.7 52 11.1 70 70 S 12 19 30.02 1017 10 16.0934 0 0

Powered by AerisWeather